WetterOnline ( https://www.wetteronline.de )

Wetter aktuell Stollberg

Aktuelles Wetter: Chemnitz (420m)

6-stündlich | Neueste Meldungen
Ortszeit Temperatur Wetter
Fr, 12.07. 14:00 23.3° C bewölkt
Fr, 12.07. 8:00 22.5° C wolkig
Fr, 12.07. 2:00 18.6° C wolkig
Do, 11.07. 20:00 23.4° C leicht bewölkt
Do, 11.07. 14:00 26.0° C leicht bewölkt
Do, 11.07. 8:00 20.5° C bedeckt
Do, 11.07. 2:00 18.0° C bedeckt
Mi, 10.07. 20:00 22.4° C bewölkt
Ortszeit Temperatur Wetter
Fr, 12.07. 16:00 20.5° C wolkig
Fr, 12.07. 15:50 20.5° C wolkig
Fr, 12.07. 15:40 20.9° C bedeckt
Fr, 12.07. 15:30 20.8° C wolkig
Fr, 12.07. 15:20 20.8° C wolkig
Fr, 12.07. 15:10 20.4° C leichter Regen
Fr, 12.07. 15:00 20.1° C leichter Regen
Fr, 12.07. 14:30 20.7° C Regen
Fr, 12.07. 14:00 23.3° C bewölkt
Fr, 12.07. 13:30 27.1° C wolkig
Fr, 12.07. 13:00 26.8° C bewölkt
Ortszeit Relative Feuchte Sichtweite
Fr, 12.07. 14:00 70% >70 km
Fr, 12.07. 8:00 75% 45 km
Fr, 12.07. 2:00 92% 40 km
Do, 11.07. 20:00 68% 50 km
Do, 11.07. 14:00 54% 65 km
Do, 11.07. 8:00 83% 30 km
Do, 11.07. 2:00 86% 40 km
Mi, 10.07. 20:00 67% 65 km
Ortszeit Relative Feuchte Sichtweite
Fr, 12.07. 16:00 89% 50 km
Fr, 12.07. 15:50 89% -
Fr, 12.07. 15:40 89% -
Fr, 12.07. 15:30 88% 40 km
Fr, 12.07. 15:20 88% -
Fr, 12.07. 15:10 89% -
Fr, 12.07. 15:00 87% 24 km
Fr, 12.07. 14:30 86% 8 km
Fr, 12.07. 14:00 70% >70 km
Fr, 12.07. 13:30 57% 45 km
Fr, 12.07. 13:00 59% 50 km
Ortszeit Niederschlagsmenge Niederschlagsart
Fr, 12.07. 14:00 0.0 l/m2 in 6 Std. -
Fr, 12.07. 8:00 0.0 l/m2 in 12 Std. -
Fr, 12.07. 2:00 0.1 l/m2 in 6 Std. -
Do, 11.07. 20:00 3 l/m2 in 12 Std. Regen
Do, 11.07. 14:00 0.0 l/m2 in 6 Std. -
Do, 11.07. 8:00 0.3 l/m2 in 12 Std. Regen
Do, 11.07. 2:00 0.1 l/m2 in 6 Std. Regen
Mi, 10.07. 20:00 0.0 l/m2 in 12 Std. -
Ortszeit Niederschlagsmenge Niederschlagsart
Fr, 12.07. 16:00 0.4 l/m2 in 1 Std. Regen
Fr, 12.07. 15:50 keine Meldung -
Fr, 12.07. 15:40 keine Meldung -
Fr, 12.07. 15:30 0.4 l/m2 in 30 Min Schneeregen
Fr, 12.07. 15:20 keine Meldung -
Fr, 12.07. 15:10 keine Meldung -
Fr, 12.07. 15:00 0.7 l/m2 in 1 Std. Regen
Fr, 12.07. 14:30 0.5 l/m2 in 30 Min -
Fr, 12.07. 14:00 0.0 l/m2 in 1 Std. -
Fr, 12.07. 13:30 0.0 l/m2 in 30 Min -
Fr, 12.07. 13:00 0.0 l/m2 in 1 Std. -
Ortszeit Stärke Spitze Richtung
km/h Bft. km/h Grad Sektor
Fr, 12.07. 14:00 22 4 40 300° NW
Fr, 12.07. 8:00 7 2 18 120° SO
Fr, 12.07. 2:00 7 2 14 140° SO
Do, 11.07. 20:00 2 1 33 100° O
Do, 11.07. 14:00 14 3 29 220° SW
Do, 11.07. 8:00 9 2 19 230° SW
Do, 11.07. 2:00 11 2 17 210° SW
Mi, 10.07. 20:00 14 3 40 300° NW
Ortszeit Stärke Spitze Richtung
km/h Bft. km/h Grad Sektor
Fr, 12.07. 16:00 9 2 13 360° N
Fr, 12.07. 15:50 9 2 - 360° N
Fr, 12.07. 15:40 7 2 - 30° NO
Fr, 12.07. 15:30 6 1 11 30° NO
Fr, 12.07. 15:20 6 1 - 30° NO
Fr, 12.07. 15:10 6 1 - 270° W
Fr, 12.07. 15:00 6 1 30 270° W
Fr, 12.07. 14:30 18 3 29 280° W
Fr, 12.07. 14:00 22 4 36 300° NW
Fr, 12.07. 13:30 13 3 35 160° S
Fr, 12.07. 13:00 13 3 33 120° SO
Ortszeit Untergrenze Bedeckung Gattung
total tief tief mittel hoch
Fr, 12.07. 14:00 1170 m 7/8 6/8 - - -
Fr, 12.07. 8:00 8100 m 8/8 0/8 - - -
Fr, 12.07. 2:00 1500 m 8/8 2/8 - - -
Do, 11.07. 20:00 3300 m 3/8 3/8 - - -
Do, 11.07. 14:00 1170 m 3/8 1/8 - - -
Do, 11.07. 8:00 4200 m 8/8 8/8 - - -
Do, 11.07. 2:00 3300 m 8/8 8/8 - - -
Mi, 10.07. 20:00 1320 m 8/8 6/8 - - -
Ortszeit Bedeckungsgrad in Achtel und Wolkenuntergrenze
Fr, 12.07. 16:00 1(1170m) 7(3600m) 8(7200m)
Fr, 12.07. 15:50 1(1170m) 7(3600m) 8(7200m)
Fr, 12.07. 15:40 8
Fr, 12.07. 15:30 2(1050m) 8(3600m) 8(7800m)
Fr, 12.07. 15:20 2(1050m) 8(3600m) 8(7800m)
Fr, 12.07. 15:10 8
Fr, 12.07. 15:00 2(1230m) 6(5700m) 7(8100m)
Fr, 12.07. 14:30 1(360m) 7(3300m) 7(4800m)
Fr, 12.07. 14:00 5(1170m) 6(1410m) 7(5700m)
Fr, 12.07. 13:30 1(3300m) 6(8700m) 8(9000m)
Fr, 12.07. 13:00 1(3000m) 6(3600m) 8(9000m)
Ortszeit Luftdruck NN (hPa) Tendenz (hPa in 3 Std.)
Fr, 12.07. 14:00 1009 - 1,5
Fr, 12.07. 8:00 1012 - 1,0
Fr, 12.07. 2:00 1016 - 0,6
Do, 11.07. 20:00 1015 - 0,1
Do, 11.07. 14:00 1015 - 0,9
Do, 11.07. 8:00 1017 + 0,6
Do, 11.07. 2:00 1017 - 0,1
Mi, 10.07. 20:00 1016 + 1,3
Ortszeit Luftdruck NN (hPa) Tendenz (hPa in 3 Std.)
Fr, 12.07. 16:00 1009 - 0,1
Fr, 12.07. 15:50 1009 keine Meldung
Fr, 12.07. 15:40 1009 keine Meldung
Fr, 12.07. 15:30 1009 - 0,5
Fr, 12.07. 15:20 1009 keine Meldung
Fr, 12.07. 15:10 1009 keine Meldung
Fr, 12.07. 15:00 1010 - 0,5
Fr, 12.07. 14:30 1010 - 0,5
Fr, 12.07. 14:00 1009 - 1,5
Fr, 12.07. 13:30 1008 - 1,5
Fr, 12.07. 13:00 1008 - 1,9
Ortszeit Schneehöhe (cm)
Fr, 12.07. 14:00 0
Fr, 12.07. 8:00 0
Fr, 12.07. 2:00 0
Do, 11.07. 20:00 0
Do, 11.07. 14:00 0
Do, 11.07. 8:00 0
Do, 11.07. 2:00 0
Mi, 10.07. 20:00 0
Ortszeit Schneehöhe (cm)
Fr, 12.07. 16:00 0
Fr, 12.07. 15:50 0
Fr, 12.07. 15:40 -
Fr, 12.07. 15:30 0
Fr, 12.07. 15:20 0
Fr, 12.07. 15:10 -
Fr, 12.07. 15:00 0
Fr, 12.07. 14:30 0
Fr, 12.07. 14:00 0
Fr, 12.07. 13:30 -
Fr, 12.07. 13:00 0
Link zu dieser Seite / Seite empfehlen

Das Wetter in ...